Weather History for Wise, VA

Change the Weather History Date:

Tuesday, December 18, 2012

  Actual Average Record
Temperature  
Mean Temperature 40 °F -  
Max Temperature 44 °F 40 °F 66 °F (2006)
Min Temperature 37 °F 24 °F 6 °F (2000)
Degree Days  
Heating Degree Days 24    
Moisture  
Dew Point 37 °F    
Average Humidity 87    
Maximum Humidity 100    
Minimum Humidity 70    
Precipitation  
Precipitation 0.03 in - - ()
Sea Level Pressure  
Sea Level Pressure 29.81 in    
Wind  
Wind Speed 7 mph (WSW)    
Max Wind Speed 22 mph    
Max Gust Speed 20 mph    
Visibility 10 miles    
Events Rain    
Averages and records for this station are not official NWS values.
T = Trace of Precipitation, MM = Missing Value Source: NWS Daily Summary

Daily Weather History Graph

Daily Weather History Graph

Search for Another Location

Airport:

Trip Planner

Search our weather history database for the weather conditions in past years. The results will help you decide how hot, cold, wet, or windy it might be!

Date:

Astronomy

Dec. 18, 2012 Rise Set
Actual Time 7:38 AM EST 5:15 PM EST
Civil Twilight 7:09 AM EST 5:44 PM EST
Nautical Twilight 6:36 AM EST 6:17 PM EST
Astronomical Twilight 6:04 AM EST 6:49 PM EST
Moon 11:25 AM EST (12/18) 11:32 PM EST (12/18)
Length of Visible Light 10h 35m
Length of Day
9h 37m
Waxing Crescent, 34% of the Moon is Illuminated
Dec 18
Waxing Crescent
Dec 20
First Quarter
Dec 28
Full
Jan 4
Last Quarter
Jan 11
New

Hourly Weather History & Observations

Time (EST) Temp. Windchill Dew Point Humidity Pressure Visibility Wind Dir Wind Speed Gust Speed Precip Events Conditions
12:15 AM 44.6 °F 40.7 °F 42.8 °F 93% 29.66 in 10.0 mi WSW 6.9 mph - N/A   Scattered Clouds
12:35 AM 42.8 °F 39.3 °F 42.8 °F 100% 29.66 in 10.0 mi West 5.8 mph - N/A   Clear
12:55 AM 42.8 °F 40.1 °F 42.8 °F 100% 29.66 in 10.0 mi West 4.6 mph - N/A   Clear
1:15 AM 41.0 °F 38.0 °F 41.0 °F 100% 29.66 in 10.0 mi West 4.6 mph - N/A   Clear
1:35 AM 41.0 °F - 41.0 °F 100% 29.66 in 10.0 mi Calm Calm - N/A   Mostly Cloudy
1:55 AM 41.0 °F - 41.0 °F 100% 29.66 in 10.0 mi Calm Calm - N/A   Mostly Cloudy
2:15 AM 41.0 °F 39.0 °F 41.0 °F 100% 29.68 in 10.0 mi SSW 3.5 mph - N/A   Mostly Cloudy
2:35 AM 41.0 °F - 41.0 °F 100% 29.67 in 10.0 mi Calm Calm - N/A   Overcast
2:55 AM 42.8 °F 39.3 °F 42.8 °F 100% 29.68 in 7.0 mi WSW 5.8 mph - N/A   Light Drizzle
3:15 AM 42.8 °F 39.3 °F 42.8 °F 100% 29.69 in 5.0 mi WSW 5.8 mph - 0.01 in Rain Light Rain
3:35 AM 42.8 °F 39.3 °F 42.8 °F 100% 29.68 in 10.0 mi WSW 5.8 mph - 0.01 in   Overcast
3:55 AM 42.8 °F 38.6 °F 42.8 °F 100% 29.67 in 10.0 mi WSW 6.9 mph - 0.01 in   Overcast
4:15 AM 42.8 °F 38.6 °F 42.8 °F 100% 29.66 in 10.0 mi WSW 6.9 mph - N/A   Overcast
4:35 AM 42.8 °F 39.3 °F 42.8 °F 100% 29.66 in 10.0 mi WSW 5.8 mph - N/A   Overcast
4:55 AM 42.8 °F 37.5 °F 42.8 °F 100% 29.68 in 7.0 mi West 9.2 mph - N/A Rain Light Rain
5:15 AM 42.8 °F 39.3 °F 42.8 °F 100% 29.69 in 10.0 mi West 5.8 mph - N/A Rain Light Rain
5:35 AM 42.8 °F 36.6 °F 42.8 °F 100% 29.70 in 10.0 mi West 11.5 mph - 0.01 in   Mostly Cloudy
5:55 AM 41.0 °F 35.2 °F 41.0 °F 100% 29.71 in 10.0 mi West 9.2 mph 16.1 mph 0.01 in   Scattered Clouds
6:15 AM 41.0 °F 34.7 °F 39.2 °F 93% 29.72 in 10.0 mi West 10.4 mph 19.6 mph N/A   Scattered Clouds
6:35 AM 41.0 °F 34.7 °F 39.2 °F 93% 29.74 in 10.0 mi West 10.4 mph - N/A   Mostly Cloudy
6:55 AM 41.0 °F 35.2 °F 41.0 °F 100% 29.74 in 10.0 mi West 9.2 mph 17.3 mph N/A   Drizzle
7:15 AM 41.0 °F 35.8 °F 41.0 °F 100% 29.75 in 10.0 mi West 8.1 mph 16.1 mph N/A Rain Rain
7:35 AM 41.0 °F 35.8 °F 41.0 °F 100% 29.76 in 5.0 mi WNW 8.1 mph - N/A Rain Rain
7:55 AM 39.2 °F 33.6 °F 39.2 °F 100% 29.77 in 10.0 mi West 8.1 mph - N/A Rain Light Rain
8:15 AM 39.2 °F 30.8 °F 39.2 °F 100% 29.78 in 10.0 mi WNW 15.0 mph 18.4 mph N/A   Mostly Cloudy
8:35 AM 41.0 °F 34.7 °F 39.2 °F 93% 29.79 in 10.0 mi West 10.4 mph 16.1 mph N/A   Overcast
8:55 AM 41.0 °F 35.2 °F 39.2 °F 93% 29.80 in 10.0 mi West 9.2 mph - 0.01 in   Overcast
9:15 AM 41.0 °F 35.2 °F 37.4 °F 87% 29.81 in 10.0 mi WNW 9.2 mph - N/A   Mostly Cloudy
9:35 AM 41.0 °F 35.8 °F 37.4 °F 87% 29.82 in 10.0 mi NW 8.1 mph 16.1 mph N/A   Mostly Cloudy
9:55 AM 41.0 °F 34.3 °F 37.4 °F 87% 29.83 in 10.0 mi WNW 11.5 mph 17.3 mph N/A   Overcast
10:15 AM 41.0 °F 34.3 °F 37.4 °F 87% 29.83 in 10.0 mi West 11.5 mph 16.1 mph N/A   Overcast
10:35 AM 41.0 °F 35.2 °F 35.6 °F 81% 29.84 in 10.0 mi West 9.2 mph 19.6 mph N/A   Overcast
10:55 AM 41.0 °F 35.2 °F 35.6 °F 81% 29.85 in 10.0 mi West 9.2 mph - N/A   Overcast
11:15 AM 41.0 °F 34.3 °F 33.8 °F 76% 29.85 in 10.0 mi West 11.5 mph 17.3 mph N/A   Overcast
11:35 AM 39.2 °F 32.5 °F 35.6 °F 87% 29.86 in 10.0 mi WSW 10.4 mph - N/A   Overcast
11:55 AM 39.2 °F 32.0 °F 33.8 °F 81% 29.87 in 10.0 mi West 11.5 mph 19.6 mph N/A   Overcast
12:15 PM 37.4 °F 29.3 °F 33.8 °F 87% 29.87 in 10.0 mi West 12.7 mph 17.3 mph N/A   Overcast
12:35 PM 37.4 °F 29.8 °F 33.8 °F 87% 29.88 in 10.0 mi West 11.5 mph - N/A   Overcast
12:55 PM 37.4 °F 31.4 °F 33.8 °F 87% 29.87 in 10.0 mi West 8.1 mph - N/A   Overcast
1:15 PM 37.4 °F 32.8 °F 33.8 °F 87% 29.87 in 10.0 mi West 5.8 mph 9.2 mph N/A   Overcast
1:35 PM 39.2 °F 33.6 °F 33.8 °F 81% 29.86 in 10.0 mi West 8.1 mph - N/A   Overcast
1:55 PM 39.2 °F 33.0 °F 33.8 °F 81% 29.87 in 10.0 mi West 9.2 mph - N/A   Overcast
2:15 PM 39.2 °F 33.0 °F 33.8 °F 81% 29.86 in 10.0 mi West 9.2 mph - N/A   Mostly Cloudy
2:35 PM 42.8 °F 37.5 °F 35.6 °F 76% 29.86 in 10.0 mi SW 9.2 mph - N/A   Scattered Clouds
2:55 PM 41.0 °F 35.8 °F 33.8 °F 76% 29.87 in 10.0 mi WSW 8.1 mph - N/A   Scattered Clouds
3:15 PM 42.8 °F 38.0 °F 33.8 °F 70% 29.86 in 10.0 mi SW 8.1 mph - N/A   Scattered Clouds
3:35 PM 42.8 °F 40.1 °F 35.6 °F 76% 29.87 in 10.0 mi WSW 4.6 mph - N/A   Scattered Clouds
3:55 PM 42.8 °F 38.0 °F 35.6 °F 76% 29.88 in 10.0 mi WSW 8.1 mph - N/A   Scattered Clouds
4:15 PM 42.8 °F 37.5 °F 35.6 °F 76% 29.89 in 10.0 mi WSW 9.2 mph - N/A   Clear
4:35 PM 42.8 °F 38.0 °F 33.8 °F 70% 29.89 in 10.0 mi WSW 8.1 mph - N/A   Clear
4:55 PM 41.0 °F 35.8 °F 33.8 °F 76% 29.88 in 10.0 mi WSW 8.1 mph - N/A   Clear
5:15 PM 39.2 °F 33.6 °F 33.8 °F 81% 29.89 in 10.0 mi SW 8.1 mph - N/A   Clear
5:35 PM 37.4 °F 31.4 °F 32.0 °F 81% 29.90 in 10.0 mi SW 8.1 mph - N/A   Clear
5:55 PM 37.4 °F 30.8 °F 33.8 °F 87% 29.91 in 10.0 mi SW 9.2 mph - N/A   Clear
6:15 PM 37.4 °F 31.4 °F 32.0 °F 81% 29.91 in 10.0 mi SSW 8.1 mph - N/A   Clear
6:35 PM 37.4 °F 33.8 °F 32.0 °F 81% 29.91 in 10.0 mi South 4.6 mph - N/A   Clear
6:55 PM 37.4 °F 32.1 °F 32.0 °F 81% 29.90 in 10.0 mi SSE 6.9 mph - N/A   Clear
7:15 PM 39.2 °F 33.6 °F 32.0 °F 75% 29.89 in 10.0 mi SSE 8.1 mph - N/A   Clear
7:35 PM 37.4 °F 32.8 °F 32.0 °F 81% 29.89 in 10.0 mi South 5.8 mph - N/A   Clear
7:55 PM 39.2 °F 34.2 °F 32.0 °F 75% 29.89 in 10.0 mi South 6.9 mph - N/A   Clear
8:15 PM 39.2 °F 33.6 °F 32.0 °F 75% 29.89 in 10.0 mi South 8.1 mph - N/A   Clear
8:35 PM 37.4 °F 31.4 °F 32.0 °F 81% 29.89 in 10.0 mi South 8.1 mph - N/A   Clear
8:55 PM 37.4 °F 29.8 °F 32.0 °F 81% 29.88 in 10.0 mi SSW 11.5 mph - N/A   Clear
9:15 PM 39.2 °F 32.5 °F 32.0 °F 75% 29.88 in 10.0 mi SSW 10.4 mph 18.4 mph N/A   Clear
9:35 PM 39.2 °F 32.0 °F 32.0 °F 75% 29.88 in 10.0 mi SSW 11.5 mph - N/A   Clear
9:55 PM 37.4 °F 30.3 °F 32.0 °F 81% 29.88 in 10.0 mi SSW 10.4 mph - N/A   Clear
10:15 PM 39.2 °F 32.5 °F 32.0 °F 75% 29.88 in 10.0 mi SW 10.4 mph 17.3 mph N/A   Clear
10:35 PM 37.4 °F 30.3 °F 32.0 °F 81% 29.88 in 10.0 mi SW 10.4 mph - N/A   Clear
10:55 PM 39.2 °F 31.2 °F 32.0 °F 75% 29.88 in 10.0 mi WSW 13.8 mph - N/A   Clear
11:15 PM 41.0 °F 32.8 °F 32.0 °F 70% 29.88 in 10.0 mi WSW 16.1 mph - N/A   Clear
11:35 PM 41.0 °F 32.8 °F 32.0 °F 70% 29.88 in 10.0 mi WSW 16.1 mph - N/A   Clear
11:55 PM 41.0 °F 31.4 °F 32.0 °F 70% 29.88 in 10.0 mi SW 21.9 mph - N/A   Clear